Location: Ammerl�gen
(47.2167°N, 9.6000°E)
Time: 04:53:38
(UTC+00:00)

NOAA 19 - Pass Details

Date: 09 December 2021
Orbit: 841 x 860 km, 99.2° (Epoch: 16 January)

Event Time Altitude Azimuth Distance (km) Brightness Sun altitude
Rises 17:34:06 0° 153° (SSE) 3,386 8.2 -19.9°
Reaches altitude 10° 17:36:28 10° 150° (SSE) 2,456 7.4 -20.3°
Maximum altitude 17:41:50 64° 70° (ENE) 935 5.1 -21.2°
Drops below altitude 10° 17:47:16 10° 350° (N) 2,483 7.6 -22.1°
Sets 17:49:40 0° 348° (NNW) 3,425 8.4 -22.5°
